Location: Gisborne
(38.6530°S, 178.0040°E)
Time: 16:58:54
(UTC+13:00)

Cosmos 2263 Rocket - Pass Details

Date: 24 January 2019
Orbit: 824 x 848 km, 71.0° (Epoch: 20 February)

Event Time Altitude Azimuth Distance (km) Brightness Sun altitude
Rises 23:21:37 0° 221° (SW) 3,411 6.7 -25.8°
Reaches altitude 10° 23:24:51 10° 239° (WSW) 2,473 5.4 -26.1°
Maximum altitude 23:28:27 18° 279° (W) 1,985 4.3 -26.5°
Enters shadow 23:30:47 14° 307° (NW) 2,195 4.3 -26.7°
